Time,TemperatureF,DewpointF,PressureIn,WindDirection,WindDirectionDegrees,WindSpeedMPH,WindSpeedGustMPH,Humidity,HourlyPrecipIn,Conditions,Clouds,dailyrainin,SolarRadiationWatts/m^2,SoftwareType,DateUTC
2013-01-31 07:51:00,37.0,37.0,-100.00,NW,325,2.0,4.0,100,0.00,,,0.61,72.000000,,2013-01-31 13:51:00,
2013-01-31 08:22:00,37.0,37.0,-100.00,NW,325,2.0,4.0,100,0.00,,,0.61,72.000000,,2013-01-31 14:22:00,
2013-01-31 08:32:00,37.0,37.0,-100.00,NW,325,2.0,4.0,100,0.00,,,0.61,72.000000,,2013-01-31 14:32:00,
2013-01-31 08:42:00,37.0,37.0,-100.00,NW,325,2.0,4.0,100,0.00,,,0.61,72.000000,,2013-01-31 14:42:00,
2013-01-31 08:51:00,46.0,35.0,-100.00,NW,316,5.0,9.0,64,0.00,,,0.61,281.000000,,2013-01-31 14:51:00,
2013-01-31 09:12:00,46.0,35.0,-100.00,NW,316,5.0,9.0,64,0.00,,,0.61,281.000000,,2013-01-31 15:12:00,
2013-01-31 09:22:00,46.0,35.0,-100.00,NW,316,5.0,9.0,64,0.00,,,0.61,281.000000,,2013-01-31 15:22:00,
2013-01-31 09:32:00,46.0,35.0,-100.00,NW,316,5.0,9.0,64,0.00,,,0.61,281.000000,,2013-01-31 15:32:00,
2013-01-31 09:42:00,46.0,35.0,-100.00,NW,316,5.0,9.0,64,0.00,,,0.61,281.000000,,2013-01-31 15:42:00,
2013-01-31 09:51:00,51.0,30.0,-100.00,NW,325,7.0,12.0,45,0.00,,,0.61,462.000000,,2013-01-31 15:51:00,
2013-01-31 10:12:00,51.0,30.0,-100.00,NW,325,7.0,12.0,45,0.00,,,0.61,462.000000,,2013-01-31 16:12:00,
2013-01-31 10:22:00,51.0,30.0,-100.00,NW,325,7.0,12.0,45,0.00,,,0.61,462.000000,,2013-01-31 16:22:00,
2013-01-31 10:33:00,51.0,30.0,-100.00,NW,325,7.0,12.0,45,0.00,,,0.61,462.000000,,2013-01-31 16:33:00,
2013-01-31 10:42:00,51.0,30.0,-100.00,NW,325,7.0,12.0,45,0.00,,,0.61,462.000000,,2013-01-31 16:42:00,
2013-01-31 10:51:00,54.0,26.0,-100.00,NNW,342,7.0,16.0,33,0.00,,,0.47,610.000000,,2013-01-31 16:51:00,
2013-01-31 11:12:00,54.0,26.0,-100.00,NNW,342,7.0,16.0,33,0.00,,,0.47,610.000000,,2013-01-31 17:12:00,
2013-01-31 11:23:00,54.0,26.0,-100.00,NNW,342,7.0,16.0,33,0.00,,,0.47,610.000000,,2013-01-31 17:23:00,
2013-01-31 11:32:00,54.0,26.0,-100.00,NNW,342,7.0,16.0,33,0.00,,,0.47,610.000000,,2013-01-31 17:32:00,
2013-01-31 11:43:00,54.0,26.0,-100.00,NNW,342,7.0,16.0,33,0.00,,,0.47,610.000000,,2013-01-31 17:43:00,
2013-01-31 11:51:00,57.0,25.0,-100.00,North,0,4.0,14.0,29,0.00,,,0.24,702.000000,,2013-01-31 17:51:00,
2013-01-31 12:12:00,57.0,25.0,-100.00,North,0,4.0,14.0,29,0.00,,,0.24,702.000000,,2013-01-31 18:12:00,
2013-01-31 12:22:00,57.0,25.0,-100.00,North,0,4.0,14.0,29,0.00,,,0.24,702.000000,,2013-01-31 18:22:00,
2013-01-31 12:32:00,57.0,25.0,-100.00,North,0,4.0,14.0,29,0.00,,,0.24,702.000000,,2013-01-31 18:32:00,
2013-01-31 12:43:00,57.0,25.0,-100.00,North,0,4.0,14.0,29,0.00,,,0.24,702.000000,,2013-01-31 18:43:00,
2013-01-31 12:51:00,59.0,24.0,-100.00,North,6,5.0,12.0,26,0.00,,,0.03,726.000000,,2013-01-31 18:51:00,
2013-01-31 13:22:00,59.0,24.0,-100.00,North,6,5.0,12.0,26,0.00,,,0.03,726.000000,,2013-01-31 19:22:00,
2013-01-31 13:32:00,59.0,24.0,-100.00,North,6,5.0,12.0,26,0.00,,,0.03,726.000000,,2013-01-31 19:32:00,
2013-01-31 13:42:00,59.0,24.0,-100.00,North,6,5.0,12.0,26,0.00,,,0.03,726.000000,,2013-01-31 19:42:00,
2013-01-31 13:51:00,60.0,24.0,-100.00,NNW,334,6.0,14.0,25,0.00,,,0.00,691.000000,,2013-01-31 19:51:00,
2013-01-31 14:22:00,60.0,24.0,-100.00,NNW,334,6.0,14.0,25,0.00,,,0.00,691.000000,,2013-01-31 20:22:00,
2013-01-31 14:32:00,60.0,24.0,-100.00,NNW,334,6.0,14.0,25,0.00,,,0.00,691.000000,,2013-01-31 20:32:00,
2013-01-31 14:42:00,60.0,24.0,-100.00,NNW,334,6.0,14.0,25,0.00,,,0.00,691.000000,,2013-01-31 20:42:00,
2013-01-31 14:51:00,62.0,25.0,-100.00,NW,307,4.0,11.0,24,0.00,,,0.00,578.000000,,2013-01-31 20:51:00,
2013-01-31 15:22:00,62.0,25.0,-100.00,NW,307,4.0,11.0,24,0.00,,,0.00,578.000000,,2013-01-31 21:22:00,
2013-01-31 15:32:00,62.0,25.0,-100.00,NW,307,4.0,11.0,24,0.00,,,0.00,578.000000,,2013-01-31 21:32:00,
2013-01-31 15:42:00,62.0,25.0,-100.00,NW,307,4.0,11.0,24,0.00,,,0.00,578.000000,,2013-01-31 21:42:00,
2013-01-31 15:51:00,62.0,25.0,-100.00,West,267,3.0,11.0,24,0.00,,,0.00,372.000000,,2013-01-31 21:51:00,
2013-01-31 16:22:00,62.0,25.0,-100.00,West,267,3.0,11.0,24,0.00,,,0.00,372.000000,,2013-01-31 22:22:00,
2013-01-31 16:33:00,62.0,25.0,-100.00,West,267,3.0,11.0,24,0.00,,,0.00,372.000000,,2013-01-31 22:33:00,
2013-01-31 16:42:00,62.0,25.0,-100.00,West,267,3.0,11.0,24,0.00,,,0.00,372.000000,,2013-01-31 22:42:00,
2013-01-31 16:51:00,56.0,34.0,-100.00,SW,236,5.0,10.0,44,0.00,,,0.00,198.000000,,2013-01-31 22:51:00,
2013-01-31 17:22:00,56.0,34.0,-100.00,SW,236,5.0,10.0,44,0.00,,,0.00,198.000000,,2013-01-31 23:22:00,
2013-01-31 17:32:00,56.0,34.0,-100.00,SW,236,5.0,10.0,44,0.00,,,0.00,198.000000,,2013-01-31 23:32:00,
2013-01-31 17:42:00,56.0,34.0,-100.00,SW,236,5.0,10.0,44,0.00,,,0.00,198.000000,,2013-01-31 23:42:00,
2013-01-31 17:51:00,50.0,38.0,-100.00,South,190,1.0,11.0,64,0.00,,,0.00,12.000000,,2013-01-31 23:51:00,
2013-01-31 18:11:00,50.0,38.0,-100.00,South,190,1.0,11.0,64,0.00,,,0.00,12.000000,,2013-02-01 00:11:00,
2013-01-31 18:22:00,50.0,38.0,-100.00,South,190,1.0,11.0,64,0.00,,,0.00,12.000000,,2013-02-01 00:22:00,
2013-01-31 18:32:00,50.0,38.0,-100.00,South,190,1.0,11.0,64,0.00,,,0.00,12.000000,,2013-02-01 00:32:00,
2013-01-31 18:42:00,50.0,38.0,-100.00,South,190,1.0,11.0,64,0.00,,,0.00,12.000000,,2013-02-01 00:42:00,
2013-01-31 18:51:00,45.0,39.0,-100.00,South,187,2.0,3.0,79,0.00,,,0.00,0.000000,,2013-02-01 00:51:00,
2013-01-31 19:11:00,45.0,39.0,-100.00,South,187,2.0,3.0,79,0.00,,,0.00,0.000000,,2013-02-01 01:11:00,
2013-01-31 19:21:00,45.0,39.0,-100.00,South,187,2.0,3.0,79,0.00,,,0.00,0.000000,,2013-02-01 01:21:00,
2013-01-31 19:32:00,45.0,39.0,-100.00,South,187,2.0,3.0,79,0.00,,,0.00,0.000000,,2013-02-01 01:32:00,
2013-01-31 19:42:00,45.0,39.0,-100.00,South,187,2.0,3.0,79,0.00,,,0.00,0.000000,,2013-02-01 01:42:00,
2013-01-31 19:51:00,43.0,40.0,-100.00,SSE,168,1.0,2.0,90,0.00,,,0.00,0.000000,,2013-02-01 01:51:00,
2013-01-31 20:11:00,43.0,40.0,-100.00,SSE,168,1.0,2.0,90,0.00,,,0.00,0.000000,,2013-02-01 02:11:00,
2013-01-31 20:21:00,43.0,40.0,-100.00,SSE,168,1.0,2.0,90,0.00,,,0.00,0.000000,,2013-02-01 02:21:00,
2013-01-31 20:32:00,43.0,40.0,-100.00,SSE,168,1.0,2.0,90,0.00,,,0.00,0.000000,,2013-02-01 02:32:00,
2013-01-31 20:42:00,43.0,40.0,-100.00,SSE,168,1.0,2.0,90,0.00,,,0.00,0.000000,,2013-02-01 02:42:00,
2013-01-31 20:51:00,41.0,40.0,-100.00,NW,317,0.0,2.0,98,0.00,,,0.00,0.000000,,2013-02-01 02:51:00,
2013-01-31 21:12:00,41.0,40.0,-100.00,NW,317,0.0,2.0,98,0.00,,,0.00,0.000000,,2013-02-01 03:12:00,
2013-01-31 21:21:00,41.0,40.0,-100.00,NW,317,0.0,2.0,98,0.00,,,0.00,0.000000,,2013-02-01 03:21:00,
2013-01-31 21:32:00,41.0,40.0,-100.00,NW,317,0.0,2.0,98,0.00,,,0.00,0.000000,,2013-02-01 03:32:00,
2013-01-31 21:42:00,41.0,40.0,-100.00,NW,317,0.0,2.0,98,0.00,,,0.00,0.000000,,2013-02-01 03:42:00,
2013-01-31 21:51:00,39.0,39.0,-100.00,SW,232,0.0,2.0,100,0.00,,,0.00,0.000000,,2013-02-01 03:51:00,
2013-01-31 22:11:00,39.0,39.0,-100.00,SW,232,0.0,2.0,100,0.00,,,0.00,0.000000,,2013-02-01 04:11:00,
2013-01-31 22:21:00,39.0,39.0,-100.00,SW,232,0.0,2.0,100,0.00,,,0.00,0.000000,,2013-02-01 04:21:00,
2013-01-31 22:32:00,39.0,39.0,-100.00,SW,232,0.0,2.0,100,0.00,,,0.00,0.000000,,2013-02-01 04:32:00,
2013-01-31 22:41:00,39.0,39.0,-100.00,SW,232,0.0,2.0,100,0.00,,,0.00,0.000000,,2013-02-01 04:41:00,
2013-01-31 22:51:00,38.0,38.0,-100.00,WNW,299,2.0,4.0,99,0.00,,,0.00,0.000000,,2013-02-01 04:51:00,
2013-01-31 23:22:00,38.0,38.0,-100.00,WNW,299,2.0,4.0,99,0.00,,,0.00,0.000000,,2013-02-01 05:22:00,
2013-01-31 23:42:00,38.0,38.0,-100.00,WNW,299,2.0,4.0,99,0.00,,,0.00,0.000000,,2013-02-01 05:42:00,
2013-01-31 23:51:00,40.0,40.0,-100.00,WNW,298,2.0,6.0,99,-99.99,,,0.00,0.000000,,2013-02-01 05:51:00,